Regional Weather Roundup
Issued by NWS Green Bay, WI

Home | Current Version | Previous Version | Graphics & Text | Print | Product List | Glossary Off
Versions: 1 2 3 4 5 6 7 8 9 10 11 12 13 14 15 16 17 18 19 20 21 22 23 24 25 26 27 28 29 30 31 32 33 34 35 36 37 38 39 40 41 42 43 44 45 46 47 48 49 50

000
ASUS43 KGRB 300511
RWRGRB

NORTH-CENTRAL AND NORTHEAST WISCONSIN REGIONAL WEATHER ROUNDUP
NATIONAL WEATHER SERVICE GREEN BAY WI
1200 AM CDT THU JUL 30 2015

WIZ005-009-010>012-018-019-300600-
NORTH CENTRAL WISCONSIN

CITY           SKY/WX    TMP DP  RH WIND       PRES   REMARKS
IRONWOOD       CLEAR     68  54  60 W13       29.82S
MANITOWISH WTR CLEAR     63  55  75 W6        29.89R
ARBOR VITAE    PTCLDY    67  55  65 W7        29.90R
EAGLE RIVER    CLEAR     66  52  60 W10       29.88S
LAND O LAKES   CLEAR     68  52  57 W8        29.87S
RHINELANDER    CLEAR     65  53  65 W10       29.92R
PHILLIPS       PTCLDY    65  55  69 SW8       29.92R
ANTIGO         CLEAR     65  55  68 W10G16    29.93R
TOMAHAWK       CLEAR     65  53  65 W6        29.93R
MERRILL        NOT AVBL
$$

WIZ013-073-300600-
NORTHEAST WISCONSIN

CITY           SKY/WX    TMP DP  RH WIND       PRES   REMARKS
IRON MOUNTAIN  CLEAR     71  54  54 W9        29.84R
MARINETTE      CLEAR     70  52  52 W7        29.86S
OCONTO         CLEAR     69  56  62 SW7       29.88S
$$

WIZ017-030-035>037-045-300600-
CENTRAL WISCONSIN

CITY           SKY/WX    TMP DP  RH WIND       PRES   REMARKS
MEDFORD        CLEAR     65  56  70 W9        29.95R
WAUSAU         PTCLDY    71  54  54 W13       29.92S
MOSINEE        CLEAR     64  55  72 SW10      29.96R
MARSHFIELD     CLEAR     67  53  61 W9        29.96S
WISC RAPIDS    CLEAR     67  53  61 W7        29.97S
STEVENS POINT  CLEAR     67  53  60 W9        29.96R
WAUPACA        CLEAR     67  55  66 SW5       29.95R
SHAWANO        CLEAR     70  55  59 SW6       29.91S
CLINTONVILLE   CLEAR     68  54  60 SW6       29.92S
$$

WIZ038-039-048-051-300600-
FOX VALLEY

CITY           SKY/WX    TMP DP  RH WIND       PRES   REMARKS
NWS GREEN BAY  CLEAR     70  55  59 SW9       29.91S
APPLETON       CLEAR     68  52  56 W9        29.94S
OSHKOSH        CLEAR     70  53  54 SW5       29.95S
FOND DU LAC    CLEAR     67  54  63 SW6       29.97R
$$

WIZ022-050-052-300600-
EAST CENTRAL WISCONSIN

CITY           SKY/WX    TMP DP  RH WIND       PRES   REMARKS
STURGEON BAY   CLEAR     72  55  56 W14       29.90S
MANITOWOC      CLEAR     68  56  65 MISG      29.93S
SHEBOYGAN      CLEAR     64  55  72 SW6       29.95S
$$

LMZ563-521-522-541>543-300600-
LAKESHORE

STATION/POSITION TIME  TEMP    WIND        PRES    VSBY  WAVE
                       AIR SEA DIR/SP/G                  HT/PER
                 (UTC) (F)     (DEG/KT/KT) (MB)    (MI)  (FT/S)
SHEBOYGAN LKSHOR 0500   71     240/ 10/ 11 1013.9F
ALGOMA MARINA    0442          240/  4/  5   N/A
NORTHPORT PIER   0400   75     240/  3/  8 1010.5F
N MID LAKE BUOY  0450   73 70  220/ 14/ 17 1009.5F         2/ 4
S GREEN BAY BUOY 0500   71 71  230/ 14/ 16 1013.4S
SISTER BAY LKSHO 0414   75     260/ 15/ 18   N/A
CHAMBERS ISLAND  0400   73     210/  6/ 12 1010.8S
MENOMINEE LKSHOR 0400   73                   N/A
$$



USA.gov is the U.S. government's official web portal to all federal, state and local government web resources and services.